Time,TemperatureF,DewpointF,PressureIn,WindDirection,WindDirectionDegrees,WindSpeedMPH,WindSpeedGustMPH,Humidity,HourlyPrecipIn,Conditions,Clouds,dailyrainin,SoftwareType,DateUTC
2013-03-18 00:02:00,58.0,28.3,29.78,WNW,295,11.5,11.5,32,0.00,CLR,,0.00,WeatherDisplay:10.37,2013-03-18 07:02:00,
2013-03-18 00:07:00,58.1,29.1,29.78,WSW,257,10.4,10.4,33,0.00,CLR,,0.00,WeatherDisplay:10.37,2013-03-18 07:07:00,
2013-03-18 00:12:00,57.8,29.6,29.78,NW,306,7.0,7.0,34,0.00,CLR,,0.00,WeatherDisplay:10.37,2013-03-18 07:12:00,
2013-03-18 00:17:00,57.7,28.8,29.77,West,271,4.6,4.6,33,0.00,CLR,,0.00,WeatherDisplay:10.37,2013-03-18 07:17:00,
2013-03-18 00:22:00,57.7,29.5,29.78,SW,222,5.0,5.0,34,0.00,CLR,,0.00,WeatherDisplay:10.37,2013-03-18 07:22:00,
2013-03-18 00:27:00,57.5,29.3,29.78,SW,222,4.6,4.6,34,0.00,CLR,,0.00,WeatherDisplay:10.37,2013-03-18 07:27:00,
2013-03-18 00:32:00,57.5,27.8,29.78,West,264,10.4,10.4,32,0.00,CLR,,0.00,WeatherDisplay:10.37,2013-03-18 07:32:00,
2013-03-18 00:37:00,57.7,28.0,29.79,WSW,244,5.0,5.0,32,0.00,CLR,,0.00,WeatherDisplay:10.37,2013-03-18 07:37:00,
2013-03-18 00:42:00,57.2,27.6,29.79,WSW,244,4.0,4.0,32,0.00,CLR,,0.00,WeatherDisplay:10.37,2013-03-18 07:42:00,
2013-03-18 00:47:00,57.1,27.5,29.79,WSW,240,4.6,4.6,32,0.00,CLR,,0.00,WeatherDisplay:10.37,2013-03-18 07:47:00,
2013-03-18 00:52:00,57.1,27.5,29.79,WSW,238,5.8,5.8,32,0.00,CLR,,0.00,WeatherDisplay:10.37,2013-03-18 07:52:00,
2013-03-18 00:57:00,56.7,27.9,29.79,SSW,211,6.9,6.9,33,0.00,CLR,,0.00,WeatherDisplay:10.37,2013-03-18 07:57:00,
2013-03-18 01:02:00,56.3,27.5,29.80,SSW,211,3.5,3.5,33,0.00,CLR,,0.00,WeatherDisplay:10.37,2013-03-18 08:02:00,
2013-03-18 01:07:00,56.2,27.4,29.80,SSW,211,5.0,5.0,33,0.00,CLR,,0.00,WeatherDisplay:10.37,2013-03-18 08:07:00,
2013-03-18 01:12:00,56.2,27.4,29.80,West,271,10.4,10.4,33,0.00,CLR,,0.00,WeatherDisplay:10.37,2013-03-18 08:12:00,
2013-03-18 01:17:00,56.2,27.4,29.80,West,281,4.6,4.9,33,0.00,CLR,,0.00,WeatherDisplay:10.37,2013-03-18 08:17:00,
2013-03-18 01:22:00,56.1,27.4,29.80,NNW,329,9.2,9.2,33,0.00,CLR,,0.00,WeatherDisplay:10.37,2013-03-18 08:22:00,
2013-03-18 01:27:00,56.4,28.3,29.80,NW,316,9.2,9.2,34,0.00,CLR,,0.00,WeatherDisplay:10.37,2013-03-18 08:27:00,
2013-03-18 01:33:00,57.3,29.1,29.80,NW,321,9.2,9.2,34,0.00,CLR,,0.00,WeatherDisplay:10.37,2013-03-18 08:33:00,
2013-03-18 01:38:00,57.2,29.1,29.79,NW,323,4.6,4.6,34,0.00,CLR,,0.00,WeatherDisplay:10.37,2013-03-18 08:38:00,
2013-03-18 01:43:00,56.9,29.5,29.79,SW,221,3.5,3.5,35,0.00,CLR,,0.00,WeatherDisplay:10.37,2013-03-18 08:43:00,
2013-03-18 01:48:00,56.7,29.3,29.79,SW,221,3.5,3.5,35,0.00,CLR,,0.00,WeatherDisplay:10.37,2013-03-18 08:48:00,
2013-03-18 01:53:00,56.4,29.7,29.80,NW,310,10.4,10.4,36,0.00,CLR,,0.00,WeatherDisplay:10.37,2013-03-18 08:53:00,
2013-03-18 01:58:00,56.0,29.4,29.80,NW,312,6.0,6.0,36,0.00,CLR,,0.00,WeatherDisplay:10.37,2013-03-18 08:58:00,
2013-03-18 02:03:00,56.4,29.1,29.79,WNW,296,4.6,4.6,35,0.00,CLR,,0.00,WeatherDisplay:10.37,2013-03-18 09:03:00,
2013-03-18 02:08:00,56.4,29.1,29.79,WNW,298,4.0,4.0,35,0.00,CLR,,0.00,WeatherDisplay:10.37,2013-03-18 09:08:00,
2013-03-18 02:13:00,56.3,29.7,29.79,West,281,5.8,5.8,36,0.00,CLR,,0.00,WeatherDisplay:10.37,2013-03-18 09:13:00,
2013-03-18 02:18:00,56.3,29.0,29.79,NNW,327,5.0,5.0,35,0.00,CLR,,0.00,WeatherDisplay:10.37,2013-03-18 09:18:00,
2013-03-18 02:23:00,56.0,29.4,29.79,NW,325,3.5,3.5,36,0.00,CLR,,0.00,WeatherDisplay:10.37,2013-03-18 09:23:00,
2013-03-18 02:28:00,55.9,29.3,29.79,NNW,338,5.0,5.0,36,0.00,CLR,,0.00,WeatherDisplay:10.37,2013-03-18 09:28:00,
2013-03-18 02:34:00,55.9,29.3,29.79,NNW,337,3.5,3.5,36,0.00,CLR,,0.00,WeatherDisplay:10.37,2013-03-18 09:34:00,
2013-03-18 02:39:00,56.3,30.3,29.79,NW,314,6.9,6.9,37,0.00,CLR,,0.00,WeatherDisplay:10.37,2013-03-18 09:39:00,
2013-03-18 02:44:00,55.5,29.6,29.80,NW,314,5.8,5.8,37,0.00,CLR,,0.00,WeatherDisplay:10.37,2013-03-18 09:44:00,
2013-03-18 02:49:00,55.2,29.4,29.79,NW,304,13.8,13.8,37,0.00,CLR,,0.00,WeatherDisplay:10.37,2013-03-18 09:49:00,
2013-03-18 02:54:00,55.7,30.5,29.79,West,266,10.4,10.4,38,0.00,CLR,,0.00,WeatherDisplay:10.37,2013-03-18 09:54:00,
2013-03-18 02:59:00,55.9,31.3,29.79,WSW,254,5.8,5.8,39,0.00,CLR,,0.00,WeatherDisplay:10.37,2013-03-18 09:59:00,
2013-03-18 03:04:00,55.5,31.5,29.79,SW,215,8.1,8.1,40,0.00,CLR,,0.00,WeatherDisplay:10.37,2013-03-18 10:04:00,
2013-03-18 03:09:00,54.8,31.5,29.79,SW,216,3.5,3.5,41,0.00,CLR,,0.00,WeatherDisplay:10.37,2013-03-18 10:09:00,
2013-03-18 03:14:00,54.6,31.9,29.79,SW,215,6.9,6.9,42,0.00,CLR,,0.00,WeatherDisplay:10.37,2013-03-18 10:14:00,
2013-03-18 03:19:00,54.5,32.4,29.79,SW,217,3.5,3.5,43,0.00,CLR,,0.00,WeatherDisplay:10.37,2013-03-18 10:19:00,
2013-03-18 03:24:00,54.4,32.9,29.79,SW,217,3.5,3.5,44,0.00,CLR,,0.00,WeatherDisplay:10.37,2013-03-18 10:24:00,
2013-03-18 03:29:00,54.5,33.6,29.78,SW,217,3.5,3.5,45,0.00,CLR,,0.00,WeatherDisplay:10.37,2013-03-18 10:29:00,
2013-03-18 03:34:00,54.6,33.7,29.78,SW,217,1.1,0.0,45,0.00,CLR,,0.00,WeatherDisplay:10.37,2013-03-18 10:34:00,
2013-03-18 03:39:00,54.5,34.1,29.78,SE,134,4.6,4.6,46,0.00,CLR,,0.00,WeatherDisplay:10.37,2013-03-18 10:39:00,
2013-03-18 03:44:00,54.2,33.3,29.79,SE,134,1.1,1.1,45,0.00,CLR,,0.00,WeatherDisplay:10.37,2013-03-18 10:44:00,
2013-03-18 03:49:00,54.0,33.1,29.79,SE,134,0.0,0.0,45,0.00,CLR,,0.00,WeatherDisplay:10.37,2013-03-18 10:49:00,
2013-03-18 03:54:00,53.7,33.4,29.79,SE,134,0.0,0.0,46,0.00,CLR,,0.00,WeatherDisplay:10.37,2013-03-18 10:54:00,
2013-03-18 03:59:00,53.3,33.0,29.79,SE,134,0.0,0.0,46,0.00,CLR,,0.00,WeatherDisplay:10.37,2013-03-18 10:59:00,
2013-03-18 04:04:00,52.8,33.1,29.80,SE,134,0.0,0.0,47,0.00,CLR,,0.00,WeatherDisplay:10.37,2013-03-18 11:04:00,
2013-03-18 04:09:00,52.5,32.8,29.80,SE,134,0.0,0.0,47,0.00,CLR,,0.00,WeatherDisplay:10.37,2013-03-18 11:09:00,
2013-03-18 04:14:00,52.1,33.0,29.80,NE,37,0.0,0.0,48,0.00,CLR,,0.00,WeatherDisplay:10.37,2013-03-18 11:14:00,
2013-03-18 04:19:00,51.9,32.8,29.80,NE,40,0.0,0.0,48,0.00,CLR,,0.00,WeatherDisplay:10.37,2013-03-18 11:19:00,
2013-03-18 04:24:00,51.5,32.4,29.80,NE,40,0.0,0.0,48,0.00,CLR,,0.00,WeatherDisplay:10.37,2013-03-18 11:24:00,
2013-03-18 04:29:00,51.5,33.5,29.80,NE,40,0.0,0.0,50,0.00,CLR,,0.00,WeatherDisplay:10.37,2013-03-18 11:29:00,
2013-03-18 04:34:00,51.9,33.8,29.80,East,91,0.0,0.0,50,0.00,CLR,,0.00,WeatherDisplay:10.37,2013-03-18 11:34:00,
2013-03-18 04:39:00,52.1,33.5,29.80,East,91,0.0,0.0,49,0.00,CLR,,0.00,WeatherDisplay:10.37,2013-03-18 11:39:00,
2013-03-18 04:44:00,52.3,33.7,29.80,NNW,338,3.5,3.5,49,0.00,CLR,,0.00,WeatherDisplay:10.37,2013-03-18 11:44:00,
2013-03-18 04:49:00,52.4,33.8,29.80,NNW,338,3.5,3.5,49,0.00,CLR,,0.00,WeatherDisplay:10.37,2013-03-18 11:49:00,
2013-03-18 04:54:00,52.7,34.1,29.79,WNW,302,6.9,6.9,49,0.00,CLR,,0.00,WeatherDisplay:10.37,2013-03-18 11:54:00,
2013-03-18 04:59:00,53.7,34.5,29.79,NW,304,10.4,10.4,48,0.00,CLR,,0.00,WeatherDisplay:10.37,2013-03-18 11:59:00,
2013-03-18 05:04:00,53.9,34.6,29.81,WNW,291,5.8,5.8,48,0.00,CLR,,0.00,WeatherDisplay:10.37,2013-03-18 12:04:00,
2013-03-18 05:09:00,53.6,34.4,29.82,WNW,283,5.8,5.8,48,0.00,CLR,,0.00,WeatherDisplay:10.37,2013-03-18 12:09:00,
2013-03-18 05:14:00,53.4,34.7,29.81,NW,307,10.4,10.4,49,0.00,CLR,,0.00,WeatherDisplay:10.37,2013-03-18 12:14:00,
2013-03-18 05:19:00,54.3,33.9,29.81,WSW,248,17.3,17.3,46,0.00,CLR,,0.00,WeatherDisplay:10.37,2013-03-18 12:19:00,
2013-03-18 05:24:00,54.6,33.7,29.81,West,281,16.1,16.1,45,0.00,CLR,,0.00,WeatherDisplay:10.37,2013-03-18 12:24:00,
2013-03-18 05:29:00,56.8,32.7,29.80,NW,323,17.0,17.0,40,0.00,CLR,,0.00,WeatherDisplay:10.37,2013-03-18 12:29:00,
2013-03-18 05:34:00,57.6,32.2,29.80,NW,305,16.1,16.1,38,0.00,CLR,,0.00,WeatherDisplay:10.37,2013-03-18 12:34:00,
2013-03-18 05:39:00,57.7,31.6,29.81,NNW,327,11.5,11.5,37,0.00,CLR,,0.00,WeatherDisplay:10.37,2013-03-18 12:39:00,
2013-03-18 05:44:00,58.0,30.5,29.81,NW,315,16.0,16.0,35,0.00,CLR,,0.00,WeatherDisplay:10.37,2013-03-18 12:44:00,
2013-03-18 05:49:00,57.5,31.4,29.81,NNW,327,16.1,16.1,37,0.00,CLR,,0.00,WeatherDisplay:10.37,2013-03-18 12:49:00,
2013-03-18 05:54:00,57.5,30.7,29.81,WNW,300,15.0,15.0,36,0.00,CLR,,0.00,WeatherDisplay:10.37,2013-03-18 12:54:00,
2013-03-18 05:59:00,56.9,33.4,29.81,West,271,11.5,11.5,41,0.00,CLR,,0.00,WeatherDisplay:10.37,2013-03-18 12:59:00,
2013-03-18 06:04:00,55.8,33.6,29.83,SW,231,6.9,6.9,43,0.00,CLR,,0.00,WeatherDisplay:10.37,2013-03-18 13:04:00,
2013-03-18 06:09:00,54.6,33.1,29.83,SW,231,6.0,6.0,44,0.00,CLR,,0.00,WeatherDisplay:10.37,2013-03-18 13:09:00,
2013-03-18 06:14:00,54.2,33.3,29.83,SSW,209,6.0,6.0,45,0.00,CLR,,0.00,WeatherDisplay:10.37,2013-03-18 13:14:00,
2013-03-18 06:19:00,53.6,32.8,29.84,SSW,209,2.3,0.0,45,0.00,CLR,,0.00,WeatherDisplay:10.37,2013-03-18 13:19:00,
2013-03-18 06:24:00,53.4,32.0,29.84,SSW,209,1.1,1.1,44,0.00,CLR,,0.00,WeatherDisplay:10.37,2013-03-18 13:24:00,
2013-03-18 06:29:00,53.5,32.1,29.84,SSW,209,4.6,4.6,44,0.00,CLR,,0.00,WeatherDisplay:10.37,2013-03-18 13:29:00,
2013-03-18 06:34:00,53.2,31.8,29.85,SSW,209,0.0,0.0,44,0.00,CLR,,0.00,WeatherDisplay:10.37,2013-03-18 13:34:00,
2013-03-18 06:39:00,53.2,30.7,29.85,NW,307,6.0,6.0,42,0.00,CLR,,0.00,WeatherDisplay:10.37,2013-03-18 13:39:00,
2013-03-18 06:44:00,54.1,30.9,29.85,SSW,209,10.4,10.4,41,0.00,CLR,,0.00,WeatherDisplay:10.37,2013-03-18 13:44:00,
2013-03-18 06:49:00,53.8,31.8,29.85,WNW,301,8.1,8.1,43,0.00,CLR,,0.00,WeatherDisplay:10.37,2013-03-18 13:49:00,
2013-03-18 06:54:00,53.9,30.7,29.86,NW,321,5.0,5.0,41,0.00,CLR,,0.00,WeatherDisplay:10.37,2013-03-18 13:54:00,
2013-03-18 06:59:00,54.1,29.7,29.86,SW,221,4.6,4.6,39,0.00,CLR,,0.00,WeatherDisplay:10.37,2013-03-18 13:59:00,
2013-03-18 07:04:00,54.0,31.4,29.87,SW,221,3.5,3.5,42,0.00,CLR,,0.00,WeatherDisplay:10.37,2013-03-18 14:04:00,
2013-03-18 07:09:00,53.4,29.7,29.87,SW,221,0.0,0.0,40,0.00,CLR,,0.00,WeatherDisplay:10.37,2013-03-18 14:09:00,
2013-03-18 07:14:00,54.1,29.0,29.87,WNW,286,5.8,5.8,38,0.00,CLR,,0.00,WeatherDisplay:10.37,2013-03-18 14:14:00,
2013-03-18 07:19:00,54.8,30.3,29.86,WSW,250,5.8,5.8,39,0.00,CLR,,0.00,WeatherDisplay:10.37,2013-03-18 14:19:00,
2013-03-18 07:24:00,54.7,30.8,29.87,SW,225,6.9,6.9,40,0.00,CLR,,0.00,WeatherDisplay:10.37,2013-03-18 14:24:00,
2013-03-18 07:29:00,53.0,31.6,29.88,South,170,5.8,5.8,44,0.00,CLR,,0.00,WeatherDisplay:10.37,2013-03-18 14:29:00,
2013-03-18 07:34:00,51.4,31.8,29.89,South,169,3.5,3.5,47,0.00,CLR,,0.00,WeatherDisplay:10.37,2013-03-18 14:34:00,
2013-03-18 07:39:00,50.7,31.2,29.88,South,170,5.8,5.8,47,0.00,CLR,,0.00,WeatherDisplay:10.37,2013-03-18 14:39:00,
2013-03-18 07:44:00,51.7,31.0,29.89,West,265,10.4,10.4,45,0.00,CLR,,0.00,WeatherDisplay:10.37,2013-03-18 14:44:00,
2013-03-18 07:49:00,53.0,31.1,29.89,WSW,256,12.7,12.7,43,0.00,CLR,,0.00,WeatherDisplay:10.37,2013-03-18 14:49:00,
2013-03-18 07:54:00,53.3,32.5,29.89,West,269,11.5,11.5,45,0.00,CLR,,0.00,WeatherDisplay:10.37,2013-03-18 14:54:00,
2013-03-18 07:59:00,53.5,32.7,29.89,WSW,257,4.6,4.6,45,0.00,CLR,,0.00,WeatherDisplay:10.37,2013-03-18 14:59:00,
2013-03-18 08:05:00,53.8,32.4,29.88,WSW,253,5.8,5.8,44,0.00,CLR,,0.00,WeatherDisplay:10.37,2013-03-18 15:05:00,
2013-03-18 08:10:00,53.9,33.0,29.89,West,259,3.5,3.5,45,0.00,CLR,,0.00,WeatherDisplay:10.37,2013-03-18 15:10:00,
2013-03-18 08:15:00,54.2,33.3,29.89,West,259,3.5,3.5,45,0.00,CLR,,0.00,WeatherDisplay:10.37,2013-03-18 15:15:00,
2013-03-18 08:20:00,54.7,33.2,29.89,West,259,4.6,4.6,44,0.00,CLR,,0.00,WeatherDisplay:10.37,2013-03-18 15:20:00,
2013-03-18 08:25:00,55.2,33.6,29.90,West,259,0.0,0.0,44,0.00,CLR,,0.00,WeatherDisplay:10.37,2013-03-18 15:25:00,
2013-03-18 08:30:00,55.8,34.2,29.90,WSW,258,3.5,3.5,44,0.00,CLR,,0.00,WeatherDisplay:10.37,2013-03-18 15:30:00,
2013-03-18 08:35:00,56.4,34.2,29.90,WSW,255,3.5,3.5,43,0.00,CLR,,0.00,WeatherDisplay:10.37,2013-03-18 15:35:00,
2013-03-18 08:40:00,56.6,34.3,29.90,SSW,202,5.8,5.8,43,0.00,CLR,,0.00,WeatherDisplay:10.37,2013-03-18 15:40:00,
2013-03-18 08:45:00,56.8,34.5,29.90,SSW,202,3.5,3.5,43,0.00,CLR,,0.00,WeatherDisplay:10.37,2013-03-18 15:45:00,
2013-03-18 08:50:00,57.3,33.8,29.90,SSW,202,4.0,4.0,41,0.00,CLR,,0.00,WeatherDisplay:10.37,2013-03-18 15:50:00,
2013-03-18 08:55:00,58.5,32.3,29.90,SSW,202,5.8,5.8,37,0.00,CLR,,0.00,WeatherDisplay:10.37,2013-03-18 15:55:00,
2013-03-18 09:00:00,59.8,33.5,29.89,WNW,289,9.2,9.2,37,0.00,CLR,,0.00,WeatherDisplay:10.37,2013-03-18 16:00:00,
2013-03-18 09:05:00,60.7,32.1,29.89,WNW,290,6.9,6.9,34,0.00,CLR,,0.00,WeatherDisplay:10.37,2013-03-18 16:05:00,
2013-03-18 09:10:00,60.9,32.3,29.89,WSW,254,9.2,9.2,34,0.00,CLR,,0.00,WeatherDisplay:10.37,2013-03-18 16:10:00,
2013-03-18 09:15:00,61.1,31.8,29.89,WSW,250,6.0,6.0,33,0.00,CLR,,0.00,WeatherDisplay:10.37,2013-03-18 16:15:00,
2013-03-18 09:20:00,61.6,32.2,29.89,WSW,244,8.1,8.1,33,0.00,CLR,,0.00,WeatherDisplay:10.37,2013-03-18 16:20:00,
2013-03-18 09:25:00,62.0,32.5,29.89,WSW,253,6.9,6.9,33,0.00,CLR,,0.00,WeatherDisplay:10.37,2013-03-18 16:25:00,
2013-03-18 09:30:00,62.5,33.0,29.89,WSW,246,7.0,7.0,33,0.00,CLR,,0.00,WeatherDisplay:10.37,2013-03-18 16:30:00,
2013-03-18 09:35:00,62.9,33.3,29.88,WSW,246,5.8,5.8,33,0.00,CLR,,0.00,WeatherDisplay:10.37,2013-03-18 16:35:00,
2013-03-18 09:40:00,63.9,30.1,29.89,West,279,5.8,5.8,28,0.00,CLR,,0.00,WeatherDisplay:10.37,2013-03-18 16:40:00,
2013-03-18 09:45:00,65.5,27.7,29.88,NW,326,12.0,12.0,24,0.00,CLR,,0.00,WeatherDisplay:10.37,2013-03-18 16:45:00,
2013-03-18 09:50:00,66.4,27.4,29.88,NNW,333,15.0,15.0,23,0.00,CLR,,0.00,WeatherDisplay:10.37,2013-03-18 16:50:00,
2013-03-18 09:55:00,67.0,27.9,29.88,NW,313,10.4,10.4,23,0.00,CLR,,0.00,WeatherDisplay:10.37,2013-03-18 16:55:00,
2013-03-18 10:00:00,67.3,27.1,29.88,NNW,346,16.1,16.1,22,0.00,CLR,,0.00,WeatherDisplay:10.37,2013-03-18 17:00:00,
2013-03-18 10:05:00,67.5,27.3,29.88,NNE,15,9.0,9.0,22,0.00,CLR,,0.00,WeatherDisplay:10.37,2013-03-18 17:05:00,
2013-03-18 10:10:00,67.7,26.3,29.88,North,5,5.8,5.8,21,0.00,CLR,,0.00,WeatherDisplay:10.37,2013-03-18 17:10:00,
2013-03-18 10:15:00,67.8,26.4,29.88,NNW,331,11.5,11.5,21,0.00,CLR,,0.00,WeatherDisplay:10.37,2013-03-18 17:15:00,
2013-03-18 10:20:00,67.9,27.6,29.88,North,360,6.9,6.9,22,0.00,CLR,,0.00,WeatherDisplay:10.37,2013-03-18 17:20:00,
2013-03-18 10:25:00,68.3,28.0,29.88,NNE,15,5.0,5.0,22,0.00,CLR,,0.00,WeatherDisplay:10.37,2013-03-18 17:25:00,
2013-03-18 10:30:00,69.3,30.9,29.88,NW,325,0.0,0.0,24,0.00,CLR,,0.00,WeatherDisplay:10.37,2013-03-18 17:30:00,
2013-03-18 10:35:00,69.5,27.8,29.88,NW,309,8.0,8.0,21,0.00,CLR,,0.00,WeatherDisplay:10.37,2013-03-18 17:35:00,
2013-03-18 10:40:00,69.4,27.7,29.88,NNW,345,5.0,5.0,21,0.00,CLR,,0.00,WeatherDisplay:10.37,2013-03-18 17:40:00,
2013-03-18 10:45:00,69.1,27.5,29.88,North,355,2.3,2.3,21,0.00,CLR,,0.00,WeatherDisplay:10.37,2013-03-18 17:45:00,
2013-03-18 10:50:00,69.2,27.6,29.88,NNW,338,4.0,4.0,21,0.00,CLR,,0.00,WeatherDisplay:10.37,2013-03-18 17:50:00,
2013-03-18 10:55:00,69.5,27.8,29.88,NW,306,2.3,2.3,21,0.00,CLR,,0.00,WeatherDisplay:10.37,2013-03-18 17:55:00,
2013-03-18 11:00:00,69.9,28.2,29.88,NW,306,1.0,1.0,21,0.00,CLR,,0.00,WeatherDisplay:10.37,2013-03-18 18:00:00,
2013-03-18 11:05:00,70.7,28.8,29.88,SE,130,5.0,5.0,21,0.00,CLR,,0.00,WeatherDisplay:10.37,2013-03-18 18:05:00,
2013-03-18 11:10:00,70.7,28.8,29.88,SE,130,1.1,0.0,21,0.00,CLR,,0.00,WeatherDisplay:10.37,2013-03-18 18:10:00,
2013-03-18 11:15:00,71.3,30.5,29.87,ENE,64,5.0,5.0,22,0.00,CLR,,0.00,WeatherDisplay:10.37,2013-03-18 18:15:00,
2013-03-18 11:20:00,70.9,30.1,29.87,East,91,4.6,4.6,22,0.00,CLR,,0.00,WeatherDisplay:10.37,2013-03-18 18:20:00,
2013-03-18 11:25:00,70.9,29.0,29.87,ENE,74,3.5,3.5,21,0.00,CLR,,0.00,WeatherDisplay:10.37,2013-03-18 18:25:00,
2013-03-18 11:30:00,71.3,29.3,29.87,ENE,74,4.0,4.0,21,0.00,CLR,,0.00,WeatherDisplay:10.37,2013-03-18 18:30:00,
2013-03-18 11:35:00,71.4,30.5,29.87,East,88,6.9,6.9,22,0.00,CLR,,0.00,WeatherDisplay:10.37,2013-03-18 18:35:00,
2013-03-18 11:40:00,71.4,30.5,29.86,East,88,0.0,0.0,22,0.00,CLR,,0.00,WeatherDisplay:10.37,2013-03-18 18:40:00,
2013-03-18 11:45:00,72.1,31.1,29.86,East,79,6.9,6.9,22,0.00,CLR,,0.00,WeatherDisplay:10.37,2013-03-18 18:45:00,
2013-03-18 11:50:00,71.5,30.6,29.86,ESE,113,7.0,7.0,22,0.00,CLR,,0.00,WeatherDisplay:10.37,2013-03-18 18:50:00,
2013-03-18 11:55:00,70.8,30.0,29.86,East,88,6.9,6.9,22,0.00,CLR,,0.00,WeatherDisplay:10.37,2013-03-18 18:55:00,
2013-03-18 12:00:00,70.7,31.1,29.86,ENE,68,4.0,4.0,23,0.00,CLR,,0.00,WeatherDisplay:10.37,2013-03-18 19:00:00,
2013-03-18 12:05:00,71.3,26.9,29.87,ESE,121,10.4,10.4,19,0.00,CLR,,0.00,WeatherDisplay:10.37,2013-03-18 19:05:00,
2013-03-18 12:10:00,71.1,29.2,29.87,ESE,121,9.2,9.2,21,0.00,CLR,,0.00,WeatherDisplay:10.37,2013-03-18 19:10:00,
2013-03-18 12:15:00,71.3,26.9,29.87,East,101,4.6,4.6,19,0.00,CLR,,0.00,WeatherDisplay:10.37,2013-03-18 19:15:00,
2013-03-18 12:20:00,71.7,27.2,29.86,SE,136,10.4,10.4,19,0.00,CLR,,0.00,WeatherDisplay:10.37,2013-03-18 19:20:00,
2013-03-18 12:25:00,71.6,25.8,29.86,SE,125,9.2,9.2,18,0.00,CLR,,0.00,WeatherDisplay:10.37,2013-03-18 19:25:00,
2013-03-18 12:30:00,72.1,26.2,29.86,SE,125,5.0,5.0,18,0.00,CLR,,0.00,WeatherDisplay:10.37,2013-03-18 19:30:00,
2013-03-18 12:35:00,72.1,26.2,29.86,East,87,5.8,5.8,18,0.00,CLR,,0.00,WeatherDisplay:10.37,2013-03-18 19:35:00,
2013-03-18 12:40:00,72.7,26.7,29.86,East,83,5.8,5.8,18,0.00,CLR,,0.00,WeatherDisplay:10.37,2013-03-18 19:40:00,
2013-03-18 12:45:00,72.4,27.8,29.86,SE,137,7.0,7.0,19,0.00,CLR,,0.00,WeatherDisplay:10.37,2013-03-18 19:45:00,
2013-03-18 12:50:00,72.6,26.6,29.86,ESE,105,4.6,4.6,18,0.00,CLR,,0.00,WeatherDisplay:10.37,2013-03-18 19:50:00,
2013-03-18 12:55:00,72.8,26.8,29.85,SE,126,9.2,9.2,18,0.00,CLR,,0.00,WeatherDisplay:10.37,2013-03-18 19:55:00,
2013-03-18 13:00:00,73.0,27.0,29.85,ENE,74,4.6,4.6,18,0.00,CLR,,0.00,WeatherDisplay:10.37,2013-03-18 20:00:00,
2013-03-18 13:05:00,73.3,25.8,29.84,East,94,5.8,5.8,17,0.00,CLR,,0.00,WeatherDisplay:10.37,2013-03-18 20:05:00,
2013-03-18 13:10:00,73.3,24.4,29.84,ESE,123,3.5,3.5,16,0.00,CLR,,0.00,WeatherDisplay:10.37,2013-03-18 20:10:00,
2013-03-18 13:15:00,73.3,24.4,29.84,SE,134,11.5,11.5,16,0.00,CLR,,0.00,WeatherDisplay:10.37,2013-03-18 20:15:00,
2013-03-18 13:20:00,73.4,24.4,29.84,ESE,121,7.0,7.0,16,0.00,CLR,,0.00,WeatherDisplay:10.37,2013-03-18 20:20:00,
2013-03-18 13:25:00,73.4,24.4,29.84,SE,136,6.9,6.9,16,0.00,CLR,,0.00,WeatherDisplay:10.37,2013-03-18 20:25:00,
2013-03-18 13:30:00,73.3,24.4,29.84,ESE,121,3.5,3.5,16,0.00,CLR,,0.00,WeatherDisplay:10.37,2013-03-18 20:30:00,
2013-03-18 13:35:00,74.2,26.5,29.83,SE,138,9.0,9.0,17,0.00,CLR,,0.00,WeatherDisplay:10.37,2013-03-18 20:35:00,
2013-03-18 13:40:00,74.2,26.5,29.83,SE,138,6.9,6.9,17,0.00,CLR,,0.00,WeatherDisplay:10.37,2013-03-18 20:40:00,
2013-03-18 13:45:00,74.6,26.9,29.83,South,178,10.4,10.4,17,0.00,CLR,,0.00,WeatherDisplay:10.37,2013-03-18 20:45:00,
2013-03-18 13:50:00,74.0,26.4,29.82,SE,146,0.0,0.0,17,0.00,CLR,,0.00,WeatherDisplay:10.37,2013-03-18 20:50:00,
2013-03-18 13:55:00,74.4,25.2,29.82,East,98,4.0,4.0,16,0.00,CLR,,0.00,WeatherDisplay:10.37,2013-03-18 20:55:00,
2013-03-18 14:00:00,74.4,26.7,29.81,ESE,122,5.0,5.0,17,0.00,CLR,,0.00,WeatherDisplay:10.37,2013-03-18 21:00:00,
2013-03-18 14:05:00,74.4,25.2,29.82,SE,138,9.2,9.2,16,0.00,CLR,,0.00,WeatherDisplay:10.37,2013-03-18 21:05:00,
2013-03-18 14:10:00,74.2,25.1,29.81,East,92,3.5,3.5,16,0.00,CLR,,0.00,WeatherDisplay:10.37,2013-03-18 21:10:00,
2013-03-18 14:15:00,74.2,25.1,29.81,East,83,6.9,6.9,16,0.00,CLR,,0.00,WeatherDisplay:10.37,2013-03-18 21:15:00,
2013-03-18 14:20:00,74.6,25.4,29.81,SE,136,11.5,11.5,16,0.00,CLR,,0.00,WeatherDisplay:10.37,2013-03-18 21:20:00,
2013-03-18 14:25:00,74.6,25.4,29.80,East,98,8.1,8.1,16,0.00,CLR,,0.00,WeatherDisplay:10.37,2013-03-18 21:25:00,
2013-03-18 14:30:00,74.6,26.9,29.81,East,98,7.0,7.0,17,0.00,CLR,,0.00,WeatherDisplay:10.37,2013-03-18 21:30:00,
2013-03-18 14:35:00,75.0,27.2,29.81,SSW,197,6.9,6.9,17,0.00,CLR,,0.00,WeatherDisplay:10.37,2013-03-18 21:35:00,
2013-03-18 14:40:00,75.5,27.6,29.80,SSW,197,0.0,0.0,17,0.00,CLR,,0.00,WeatherDisplay:10.37,2013-03-18 21:40:00,
2013-03-18 14:46:00,76.0,28.0,29.80,SSE,148,5.0,5.0,17,0.00,CLR,,0.00,WeatherDisplay:10.37,2013-03-18 21:46:00,
2013-03-18 14:51:00,75.9,27.9,29.80,SSE,148,4.0,4.0,17,0.00,CLR,,0.00,WeatherDisplay:10.37,2013-03-18 21:51:00,
2013-03-18 14:56:00,76.0,28.0,29.79,SSE,164,8.1,8.1,17,0.00,CLR,,0.00,WeatherDisplay:10.37,2013-03-18 21:56:00,
2013-03-18 15:01:00,75.7,27.8,29.80,SW,217,6.9,6.9,17,0.00,CLR,,0.00,WeatherDisplay:10.37,2013-03-18 22:01:00,
2013-03-18 15:06:00,75.2,27.4,29.79,SSW,199,2.0,2.0,17,0.00,CLR,,0.00,WeatherDisplay:10.37,2013-03-18 22:06:00,
2013-03-18 15:11:00,75.4,27.5,29.79,SSE,149,6.9,6.9,17,0.00,CLR,,0.00,WeatherDisplay:10.37,2013-03-18 22:11:00,
2013-03-18 15:16:00,75.4,27.5,29.79,SSE,150,5.8,5.8,17,0.00,CLR,,0.00,WeatherDisplay:10.37,2013-03-18 22:16:00,
2013-03-18 15:22:00,75.7,29.2,29.79,South,184,5.8,5.8,18,0.00,CLR,,0.00,WeatherDisplay:10.37,2013-03-18 22:22:00,
2013-03-18 15:27:00,75.7,29.2,29.78,South,176,6.0,6.0,18,0.00,CLR,,0.00,WeatherDisplay:10.37,2013-03-18 22:27:00,
2013-03-18 15:33:00,76.0,29.4,29.78,West,268,12.0,12.0,18,0.00,CLR,,0.00,WeatherDisplay:10.37,2013-03-18 22:33:00,
2013-03-18 15:38:00,76.0,28.0,29.78,WNW,287,19.6,19.6,17,0.00,CLR,,0.00,WeatherDisplay:10.37,2013-03-18 22:38:00,
2013-03-18 15:43:00,75.8,29.2,29.79,SW,228,17.3,17.3,18,0.00,CLR,,0.00,WeatherDisplay:10.37,2013-03-18 22:43:00,
2013-03-18 15:48:00,75.9,29.3,29.78,SW,226,12.0,12.0,18,0.00,CLR,,0.00,WeatherDisplay:10.37,2013-03-18 22:48:00,
2013-03-18 15:53:00,75.8,29.2,29.78,SW,218,15.0,15.0,18,0.00,CLR,,0.00,WeatherDisplay:10.37,2013-03-18 22:53:00,
2013-03-18 15:58:00,75.4,28.9,29.78,South,190,15.0,15.0,18,0.00,CLR,,0.00,WeatherDisplay:10.37,2013-03-18 22:58:00,
2013-03-18 16:03:00,75.3,28.8,29.78,SSW,209,18.4,18.4,18,0.00,CLR,,0.00,WeatherDisplay:10.37,2013-03-18 23:03:00,
2013-03-18 16:08:00,75.8,29.2,29.78,West,276,12.7,12.7,18,0.00,CLR,,0.00,WeatherDisplay:10.37,2013-03-18 23:08:00,
2013-03-18 16:13:00,76.1,28.1,29.78,West,272,15.0,15.0,17,0.00,CLR,,0.00,WeatherDisplay:10.37,2013-03-18 23:13:00,
2013-03-18 16:18:00,75.9,29.3,29.78,WNW,290,9.2,9.2,18,0.00,CLR,,0.00,WeatherDisplay:10.37,2013-03-18 23:18:00,
2013-03-18 16:23:00,75.5,27.6,29.78,West,273,12.7,12.7,17,0.00,CLR,,0.00,WeatherDisplay:10.37,2013-03-18 23:23:00,
2013-03-18 16:28:00,75.2,27.4,29.79,WNW,303,11.5,11.5,17,0.00,CLR,,0.00,WeatherDisplay:10.37,2013-03-18 23:28:00,
2013-03-18 16:33:00,75.1,27.3,29.79,NW,323,11.5,11.5,17,0.00,CLR,,0.00,WeatherDisplay:10.37,2013-03-18 23:33:00,
2013-03-18 16:38:00,75.1,25.8,29.78,NNW,337,13.0,13.0,16,0.00,CLR,,0.00,WeatherDisplay:10.37,2013-03-18 23:38:00,
2013-03-18 16:43:00,75.1,24.3,29.78,NW,323,15.0,15.0,15,0.00,CLR,,0.00,WeatherDisplay:10.37,2013-03-18 23:43:00,
2013-03-18 16:48:00,74.5,22.1,29.78,NNW,348,12.7,12.7,14,0.00,CLR,,0.00,WeatherDisplay:10.37,2013-03-18 23:48:00,
2013-03-18 16:53:00,74.4,22.1,29.78,North,355,13.8,13.8,14,0.00,CLR,,0.00,WeatherDisplay:10.37,2013-03-18 23:53:00,
2013-03-18 16:58:00,74.4,23.7,29.79,NNW,338,11.5,11.5,15,0.00,CLR,,0.00,WeatherDisplay:10.37,2013-03-18 23:58:00,
2013-03-18 17:03:00,74.3,23.6,29.78,North,349,13.8,13.8,15,0.00,CLR,,0.00,WeatherDisplay:10.37,2013-03-19 00:03:00,
2013-03-18 17:08:00,73.9,26.3,29.79,WNW,301,12.7,12.7,17,0.00,CLR,,0.00,WeatherDisplay:10.37,2013-03-19 00:08:00,
2013-03-18 17:13:00,74.3,28.0,29.79,SW,234,5.8,5.8,18,0.00,CLR,,0.00,WeatherDisplay:10.37,2013-03-19 00:13:00,
2013-03-18 17:18:00,72.7,28.0,29.78,WSW,248,21.9,21.9,19,0.00,CLR,,0.00,WeatherDisplay:10.37,2013-03-19 00:18:00,
2013-03-18 17:23:00,71.9,28.6,29.78,WSW,241,18.4,18.4,20,0.00,CLR,,0.00,WeatherDisplay:10.37,2013-03-19 00:23:00,
2013-03-18 17:28:00,71.8,27.3,29.79,SSW,193,10.4,10.4,19,0.00,CLR,,0.00,WeatherDisplay:10.37,2013-03-19 00:28:00,
2013-03-18 17:33:00,72.1,24.8,29.79,SSW,193,2.3,2.3,17,0.00,CLR,,0.00,WeatherDisplay:10.37,2013-03-19 00:33:00,
2013-03-18 17:38:00,72.7,23.9,29.79,WNW,296,6.9,6.9,16,0.00,CLR,,0.00,WeatherDisplay:10.37,2013-03-19 00:38:00,
2013-03-18 17:43:00,72.4,25.1,29.79,West,272,15.0,15.0,17,0.00,CLR,,0.00,WeatherDisplay:10.37,2013-03-19 00:43:00,
2013-03-18 17:48:00,71.2,25.5,29.79,WSW,254,12.0,12.0,18,0.00,CLR,,0.00,WeatherDisplay:10.37,2013-03-19 00:48:00,
2013-03-18 17:53:00,70.5,23.5,29.79,West,279,17.3,17.3,17,0.00,CLR,,0.00,WeatherDisplay:10.37,2013-03-19 00:53:00,
2013-03-18 17:58:00,70.3,23.4,29.80,West,267,16.1,16.1,17,0.00,CLR,,0.00,WeatherDisplay:10.37,2013-03-19 00:58:00,
2013-03-18 18:03:00,70.3,21.9,29.80,WSW,253,11.5,11.5,16,0.00,CLR,,0.00,WeatherDisplay:10.37,2013-03-19 01:03:00,
2013-03-18 18:08:00,70.1,20.3,29.80,WSW,240,16.1,16.1,15,0.00,CLR,,0.00,WeatherDisplay:10.37,2013-03-19 01:08:00,
2013-03-18 18:13:00,70.1,20.3,29.80,WSW,257,12.0,12.0,15,0.00,CLR,,0.00,WeatherDisplay:10.37,2013-03-19 01:13:00,
2013-03-18 18:18:00,69.7,21.5,29.80,West,274,13.0,13.0,16,0.00,CLR,,0.00,WeatherDisplay:10.37,2013-03-19 01:18:00,
2013-03-18 18:23:00,69.2,22.5,29.81,WSW,246,12.0,12.0,17,0.00,CLR,,0.00,WeatherDisplay:10.37,2013-03-19 01:23:00,
2013-03-18 18:28:00,68.9,22.2,29.81,WSW,238,14.0,14.0,17,0.00,CLR,,0.00,WeatherDisplay:10.37,2013-03-19 01:28:00,
2013-03-18 18:33:00,68.4,23.2,29.81,WSW,248,16.1,16.1,18,0.00,CLR,,0.00,WeatherDisplay:10.37,2013-03-19 01:33:00,
2013-03-18 18:38:00,67.7,23.9,29.81,WSW,256,13.8,13.8,19,0.00,CLR,,0.00,WeatherDisplay:10.37,2013-03-19 01:38:00,
2013-03-18 18:43:00,67.2,24.7,29.82,West,267,18.4,18.4,20,0.00,CLR,,0.00,WeatherDisplay:10.37,2013-03-19 01:43:00,
2013-03-18 18:48:00,66.7,26.6,29.81,West,281,19.6,19.6,22,0.00,CLR,,0.00,WeatherDisplay:10.37,2013-03-19 01:48:00,
2013-03-18 18:53:00,66.4,26.4,29.81,West,280,19.6,19.6,22,0.00,CLR,,0.00,WeatherDisplay:10.37,2013-03-19 01:53:00,
2013-03-18 18:58:00,66.3,26.3,29.81,WNW,284,21.9,21.9,22,0.00,CLR,,0.00,WeatherDisplay:10.37,2013-03-19 01:58:00,
2013-03-18 19:03:00,66.1,26.1,29.81,WNW,288,16.1,16.1,22,0.00,CLR,,0.00,WeatherDisplay:10.37,2013-03-19 02:03:00,
2013-03-18 19:08:00,65.8,26.9,29.81,West,277,18.4,18.4,23,0.00,CLR,,0.00,WeatherDisplay:10.37,2013-03-19 02:08:00,
2013-03-18 19:13:00,65.7,25.8,29.82,West,276,19.6,19.6,22,0.00,CLR,,0.00,WeatherDisplay:10.37,2013-03-19 02:13:00,
2013-03-18 19:18:00,65.1,28.4,29.82,West,265,16.1,16.1,25,0.00,CLR,,0.00,WeatherDisplay:10.37,2013-03-19 02:18:00,
2013-03-18 19:23:00,64.4,28.7,29.82,NW,315,12.7,12.7,26,0.00,CLR,,0.00,WeatherDisplay:10.37,2013-03-19 02:23:00,
2013-03-18 19:28:00,64.1,29.4,29.83,WSW,256,6.9,6.9,27,0.00,CLR,,0.00,WeatherDisplay:10.37,2013-03-19 02:28:00,
2013-03-18 19:33:00,63.8,29.1,29.83,West,265,10.4,10.4,27,0.00,CLR,,0.00,WeatherDisplay:10.37,2013-03-19 02:33:00,
2013-03-18 19:38:00,63.3,29.6,29.84,West,265,10.4,10.4,28,0.00,CLR,,0.00,WeatherDisplay:10.37,2013-03-19 02:38:00,
2013-03-18 19:43:00,63.0,31.0,29.84,WSW,246,11.5,11.5,30,0.00,CLR,,0.00,WeatherDisplay:10.37,2013-03-19 02:43:00,
2013-03-18 19:48:00,62.6,31.5,29.84,WSW,246,11.5,11.5,31,0.00,CLR,,0.00,WeatherDisplay:10.37,2013-03-19 02:48:00,
2013-03-18 19:53:00,62.5,31.4,29.85,NW,323,11.5,11.5,31,0.00,CLR,,0.00,WeatherDisplay:10.37,2013-03-19 02:53:00,
2013-03-18 19:58:00,62.4,32.1,29.85,NNW,327,5.8,5.8,32,0.00,CLR,,0.00,WeatherDisplay:10.37,2013-03-19 02:58:00,
2013-03-18 20:03:00,62.5,31.4,29.83,WNW,288,17.3,17.3,31,0.00,CLR,,0.00,WeatherDisplay:10.37,2013-03-19 03:03:00,
2013-03-18 20:08:00,62.5,30.6,29.83,West,261,11.5,11.5,30,0.00,CLR,,0.00,WeatherDisplay:10.37,2013-03-19 03:08:00,
2013-03-18 20:13:00,62.5,30.6,29.83,SW,234,6.9,6.9,30,0.00,CLR,,0.00,WeatherDisplay:10.37,2013-03-19 03:13:00,
2013-03-18 20:18:00,62.4,30.5,29.83,WNW,287,3.5,3.5,30,0.00,CLR,,0.00,WeatherDisplay:10.37,2013-03-19 03:18:00,
2013-03-18 20:23:00,62.3,30.4,29.83,WNW,298,10.4,10.4,30,0.00,CLR,,0.00,WeatherDisplay:10.37,2013-03-19 03:23:00,
2013-03-18 20:28:00,62.3,29.6,29.83,WNW,288,11.5,11.5,29,0.00,CLR,,0.00,WeatherDisplay:10.37,2013-03-19 03:28:00,
2013-03-18 20:33:00,62.3,29.6,29.84,WNW,288,6.9,6.9,29,0.00,CLR,,0.00,WeatherDisplay:10.37,2013-03-19 03:33:00,
2013-03-18 20:38:00,62.3,29.6,29.84,WNW,283,15.0,15.0,29,0.00,CLR,,0.00,WeatherDisplay:10.37,2013-03-19 03:38:00,
2013-03-18 20:43:00,62.2,29.5,29.84,WSW,250,10.4,10.4,29,0.00,CLR,,0.00,WeatherDisplay:10.37,2013-03-19 03:43:00,
2013-03-18 20:48:00,62.2,28.7,29.84,West,260,10.4,10.4,28,0.00,CLR,,0.00,WeatherDisplay:10.37,2013-03-19 03:48:00,
2013-03-18 20:53:00,62.2,29.5,29.84,West,269,11.5,11.5,29,0.00,CLR,,0.00,WeatherDisplay:10.37,2013-03-19 03:53:00,
2013-03-18 20:58:00,62.2,29.5,29.84,West,269,13.8,13.8,29,0.00,CLR,,0.00,WeatherDisplay:10.37,2013-03-19 03:58:00,
2013-03-18 21:00:00,62.3,29.6,29.84,West,279,12.0,12.0,29,0.00,CLR,,0.00,WeatherDisplay:10.37,2013-03-19 04:00:00,
2013-03-18 21:01:00,62.2,29.5,29.83,WSW,254,11.5,11.5,29,0.00,CLR,,0.00,WeatherDisplay:10.37,2013-03-19 04:01:00,
2013-03-18 21:02:00,62.3,29.6,29.83,WNW,290,12.0,12.0,29,0.00,CLR,,0.00,WeatherDisplay:10.37,2013-03-19 04:02:00,
2013-03-18 21:07:00,62.3,29.6,29.83,WNW,284,11.5,11.5,29,0.00,CLR,,0.00,WeatherDisplay:10.37,2013-03-19 04:07:00,
2013-03-18 21:12:00,62.4,28.8,29.83,West,271,13.8,13.8,28,0.00,CLR,,0.00,WeatherDisplay:10.37,2013-03-19 04:12:00,
2013-03-18 21:17:00,62.6,28.1,29.83,West,279,13.8,13.8,27,0.00,CLR,,0.00,WeatherDisplay:10.37,2013-03-19 04:17:00,
2013-03-18 21:22:00,62.9,25.5,29.83,West,281,11.5,11.5,24,0.00,CLR,,0.00,WeatherDisplay:10.37,2013-03-19 04:22:00,
2013-03-18 21:27:00,63.1,25.7,29.83,WNW,302,11.5,11.5,24,0.00,CLR,,0.00,WeatherDisplay:10.37,2013-03-19 04:27:00,
2013-03-18 21:32:00,63.3,24.8,29.83,West,280,13.8,13.8,23,0.00,CLR,,0.00,WeatherDisplay:10.37,2013-03-19 04:32:00,
2013-03-18 21:37:00,63.2,25.8,29.84,WNW,294,9.2,9.2,24,0.00,CLR,,0.00,WeatherDisplay:10.37,2013-03-19 04:37:00,
2013-03-18 21:42:00,63.1,24.7,29.84,WNW,302,11.0,11.0,23,0.00,CLR,,0.00,WeatherDisplay:10.37,2013-03-19 04:42:00,
2013-03-18 21:47:00,63.2,24.7,29.84,NNW,327,4.6,4.6,23,0.00,CLR,,0.00,WeatherDisplay:10.37,2013-03-19 04:47:00,
2013-03-18 21:52:00,63.2,24.7,29.85,NW,312,2.3,2.3,23,0.00,CLR,,0.00,WeatherDisplay:10.37,2013-03-19 04:52:00,
2013-03-18 21:57:00,63.0,25.6,29.85,SW,217,10.0,10.0,24,0.00,CLR,,0.00,WeatherDisplay:10.37,2013-03-19 04:57:00,
2013-03-18 22:03:00,62.3,28.7,29.84,West,265,17.3,17.3,28,0.00,CLR,,0.00,WeatherDisplay:10.37,2013-03-19 05:03:00,
2013-03-18 22:08:00,61.6,29.8,29.84,West,272,16.1,16.1,30,0.00,CLR,,0.00,WeatherDisplay:10.37,2013-03-19 05:08:00,
2013-03-18 22:13:00,61.2,30.3,29.85,WNW,288,18.4,18.4,31,0.00,CLR,,0.00,WeatherDisplay:10.37,2013-03-19 05:13:00,
2013-03-18 22:18:00,60.9,30.8,29.85,West,266,15.0,15.0,32,0.00,CLR,,0.00,WeatherDisplay:10.37,2013-03-19 05:18:00,
2013-03-18 22:23:00,60.5,31.2,29.85,WSW,257,18.4,18.4,33,0.00,CLR,,0.00,WeatherDisplay:10.37,2013-03-19 05:23:00,
2013-03-18 22:28:00,60.2,31.7,29.85,West,263,15.0,15.0,34,0.00,CLR,,0.00,WeatherDisplay:10.37,2013-03-19 05:28:00,
2013-03-18 22:33:00,60.0,31.5,29.86,SW,231,17.3,17.3,34,0.00,CLR,,0.00,WeatherDisplay:10.37,2013-03-19 05:33:00,
2013-03-18 22:38:00,59.8,31.3,29.86,WSW,240,15.0,15.0,34,0.00,CLR,,0.00,WeatherDisplay:10.37,2013-03-19 05:38:00,
2013-03-18 22:43:00,59.6,31.2,29.85,WSW,243,16.0,16.0,34,0.00,CLR,,0.00,WeatherDisplay:10.37,2013-03-19 05:43:00,
2013-03-18 22:48:00,60.0,30.0,29.85,WSW,257,19.6,19.6,32,0.00,CLR,,0.00,WeatherDisplay:10.37,2013-03-19 05:48:00,
2013-03-18 22:53:00,60.3,29.5,29.85,West,279,18.4,18.4,31,0.00,CLR,,0.00,WeatherDisplay:10.37,2013-03-19 05:53:00,
2013-03-18 22:58:00,60.2,28.6,29.86,West,275,19.6,19.6,30,0.00,CLR,,0.00,WeatherDisplay:10.37,2013-03-19 05:58:00,
2013-03-18 23:03:00,60.7,27.4,29.85,West,277,16.1,16.1,28,0.00,CLR,,0.00,WeatherDisplay:10.37,2013-03-19 06:03:00,
2013-03-18 23:08:00,61.1,27.7,29.84,West,273,17.3,17.3,28,0.00,CLR,,0.00,WeatherDisplay:10.37,2013-03-19 06:08:00,
2013-03-18 23:13:00,60.7,27.4,29.85,WSW,258,21.9,21.9,28,0.00,CLR,,0.00,WeatherDisplay:10.37,2013-03-19 06:13:00,
2013-03-18 23:18:00,60.5,27.2,29.84,WSW,252,24.2,24.2,28,0.00,CLR,,0.00,WeatherDisplay:10.37,2013-03-19 06:18:00,
2013-03-18 23:23:00,60.3,27.9,29.85,WSW,257,13.8,13.8,29,0.00,CLR,,0.00,WeatherDisplay:10.37,2013-03-19 06:23:00,
2013-03-18 23:28:00,59.9,27.5,29.84,West,277,13.0,13.0,29,0.00,CLR,,0.00,WeatherDisplay:10.37,2013-03-19 06:28:00,
2013-03-18 23:33:00,59.8,27.4,29.84,West,263,17.3,17.3,29,0.00,CLR,,0.00,WeatherDisplay:10.37,2013-03-19 06:33:00,
2013-03-18 23:38:00,59.8,27.4,29.85,WSW,249,13.8,13.8,29,0.00,CLR,,0.00,WeatherDisplay:10.37,2013-03-19 06:38:00,
2013-03-18 23:43:00,59.8,27.4,29.85,WSW,252,17.3,17.3,29,0.00,CLR,,0.00,WeatherDisplay:10.37,2013-03-19 06:43:00,
2013-03-18 23:48:00,59.9,27.5,29.84,West,261,12.7,12.7,29,0.00,CLR,,0.00,WeatherDisplay:10.37,2013-03-19 06:48:00,
2013-03-18 23:53:00,60.1,26.9,29.84,WSW,250,12.7,12.7,28,0.00,CLR,,0.00,WeatherDisplay:10.37,2013-03-19 06:53:00,
2013-03-18 23:58:00,59.9,27.5,29.84,West,267,15.0,15.0,29,0.00,CLR,,0.00,WeatherDisplay:10.37,2013-03-19 06:58:00,